TimeEDT,TemperatureF,Dew PointF,Humidity,Sea Level PressureIn,VisibilityMPH,Wind Direction,Wind SpeedMPH,Gust SpeedMPH,PrecipitationIn,Events,Conditions,WindDirDegrees,DateUTC
12:53 AM,57.9,39.9,51,29.99,10.0,NE,3.5,-,N/A,,Clear,50,2012-11-03 04:53:00
1:53 AM,54.0,39.0,57,29.99,10.0,Calm,Calm,-,N/A,,Clear,0,2012-11-03 05:53:00
2:53 AM,50.0,39.0,66,29.99,10.0,NNE,3.5,-,N/A,,Clear,30,2012-11-03 06:53:00
3:53 AM,50.0,39.0,66,30.00,10.0,NNE,3.5,-,N/A,,Clear,30,2012-11-03 07:53:00
4:53 AM,46.9,41.0,80,30.01,10.0,Calm,Calm,-,N/A,,Clear,0,2012-11-03 08:53:00
5:53 AM,45.0,39.9,82,30.04,10.0,Calm,Calm,-,N/A,,Clear,0,2012-11-03 09:53:00
6:53 AM,43.0,39.0,86,30.06,10.0,Calm,Calm,-,N/A,,Clear,0,2012-11-03 10:53:00
7:53 AM,42.1,39.0,89,30.08,8.0,Calm,Calm,-,N/A,,Clear,0,2012-11-03 11:53:00
8:53 AM,46.0,41.0,83,30.11,10.0,Calm,Calm,-,N/A,,Clear,0,2012-11-03 12:53:00
9:53 AM,55.9,37.9,51,30.12,10.0,East,5.8,-,N/A,,Clear,90,2012-11-03 13:53:00
10:53 AM,61.0,34.0,36,30.13,10.0,ESE,4.6,-,N/A,,Clear,120,2012-11-03 14:53:00
11:53 AM,64.0,35.1,34,30.12,10.0,Variable,3.5,-,N/A,,Clear,0,2012-11-03 15:53:00
12:53 PM,68.0,36.0,31,30.09,10.0,Variable,3.5,-,N/A,,Clear,0,2012-11-03 16:53:00
1:53 PM,69.1,35.1,29,30.06,10.0,SW,3.5,-,N/A,,Clear,220,2012-11-03 17:53:00
2:53 PM,71.1,36.0,28,30.04,10.0,Variable,4.6,-,N/A,,Clear,0,2012-11-03 18:53:00
3:53 PM,73.0,36.0,26,30.02,10.0,South,3.5,-,N/A,,Clear,190,2012-11-03 19:53:00
4:53 PM,73.0,37.9,28,30.03,10.0,South,4.6,-,N/A,,Clear,180,2012-11-03 20:53:00
5:53 PM,71.1,39.0,31,30.03,10.0,South,3.5,-,N/A,,Clear,180,2012-11-03 21:53:00
6:53 PM,63.0,43.0,48,30.03,10.0,SE,3.5,-,N/A,,Clear,140,2012-11-03 22:53:00
7:53 PM,59.0,44.1,58,30.04,10.0,Calm,Calm,-,N/A,,Clear,0,2012-11-03 23:53:00
8:53 PM,60.1,43.0,53,30.03,10.0,SSW,3.5,-,N/A,,Clear,200,2012-11-04 00:53:00
9:53 PM,57.9,45.0,62,30.04,10.0,South,3.5,-,N/A,,Clear,190,2012-11-04 01:53:00
10:53 PM,55.9,46.0,69,30.04,10.0,SSW,3.5,-,N/A,,Clear,200,2012-11-04 02:53:00
11:53 PM,55.0,46.9,74,30.03,10.0,Calm,Calm,-,N/A,,Clear,0,2012-11-04 03:53:00